Regional Weather Roundup
Issued by NWS

Home | Current Version | Previous Version | Graphics & Text | Print | Product List | Glossary On
Versions: 1 2 3 4 5 6 7 8 9 10 11 12 13 14 15 16 17 18 19 20 21 22 23 24 25 26 27 28 29 30 31 32 33 34 35 36 37 38 39 40 41 42 43 44 45 46 47 48 49 50
000
ASUS43 KIND 271609
RWRIN

WEATHER ROUNDUP FOR INDIANA
NATIONAL WEATHER SERVICE INDIANAPOLIS IN
1200 PM EDT FRI MAR 27 2015

NOTE: "FAIR" INDICATES FEW OR NO CLOUDS BELOW 12,000 FEET WITH NO
SIGNIFICANT WEATHER AND/OR OBSTRUCTIONS TO VISIBILITY.

* - STATION DOES NOT REPORT WEATHER SUCH AS PRECIPITATION OR FOG.

+ - STATION NOT QUALITY CONTROLLED BY THE NATIONAL WEATHER SERVICE.
    USE DATA WITH CAUTION...ESPECIALLY DEWPOINT AND RELATIVE
    HUMIDITY OBSERVATIONS.

INZ001>003-010>013-019-020-271700-
NORTHWEST INDIANA

CITY           SKY/WX    TMP DP  RH WIND       PRES   REMARKS
GARY /AIRPORT/ PTSUNNY   30   9  40 N20       30.16R WCI  18
KNOX *+          N/A     32 -11  15 N16G23    30.10S WCI  21
LA PORTE +     CLOUDY    29  17  61 N15G24    30.11R WCI  18
MICHIGAN CITY+ LGT SNOW  27  18  69 N14G23    30.13R WCI  15
MONTICELLO +   FLURRIES  27  20  74 N7        30.11R WCI  20
RENSSELAER +   CLOUDY    30  23  74 N13G18    30.13R WCI  20
VALPARAISO     MIX PCPN  28   9  44 N16G25    30.11S WCI  16

$$

LMZ046-743>745-271700-
SOUTHERN LAKE MICHIGAN

STATION/POSITION TIME  TEMP WIND        PRES
                       AIR  DIR/SP/G
                 (UTC) (F)  (DEG/KT/KT) (MB)
BURNS HARBOR     1600   27  360/ 19/ 23 1021.0S
MICHIGAN CITY    1600   25  350/ 24/ 29   N/A

$$

INZ004-005-014>016-021>024-271700-
NORTH CENTRAL INDIANA

CITY           SKY/WX    TMP DP  RH WIND       PRES   REMARKS
ELKHART        CLOUDY    28   5  37 NW9G18    30.09S WCI  20
GOSHEN         CLOUDY    27  10  49 N15       30.07S WCI  15
LOGANSPORT +   CLOUDY    30  19  64 N12       30.10S WCI  21
PERU/GRISSOM   FLURRIES  28  16  59 N16       30.07R WCI  17
ROCHESTER +    FLURRIES  30  18  59 NW10      30.09S WCI  21
SOUTH BEND     CLOUDY    27  16  63 N21       30.10S HAZE    WCI  13
WARSAW +       CLOUDY    28  12  50 N14       30.07S WCI  17

$$

INZ006>009-017-018-025>027-271700-
NORTHEAST INDIANA

CITY           SKY/WX    TMP DP  RH WIND       PRES   REMARKS
ANGOLA *+      PTSUNNY   25   9  50 N14       30.04R WCI  13
AUBURN +       CLOUDY    27  10  50 N12       30.06R WCI  16
FORT WAYNE     CLOUDY    28  14  55 NW16G28   30.05F WCI  16
HUNTINGTON +   CLOUDY    28  10  47 NW9G17    30.06S WCI  19

$$

INZ028-029-035-036-043>045-051>053-271700-
WEST CENTRAL INDIANA

CITY           SKY/WX    TMP DP  RH WIND       PRES   REMARKS
CRAWFORDSVL +  CLOUDY    30  16  57 MISG      30.09S
GREENCASTLE +  CLOUDY    32  18  55 N9        30.09R WCI  24
LAFAYETTE      LGT SNOW  28  19  69 N13       30.12R WCI  17
TERRE HAUTE    CLOUDY    33  23  66 N9        30.11R WCI  25

$$

INZ030>032-037>040-046>048-054>057-064-065-271700-
CENTRAL INDIANA

CITY           SKY/WX    TMP DP  RH WIND       PRES   REMARKS
ANDERSON       CLOUDY    30  16  55 N12G23    30.06S WCI  21
CP ATTERBURY + CLOUDY    34  23  64 N13       30.07R WCI  25
COLUMBUS       FLURRIES  32  23  69 N12       30.06S WCI  23
FISHERS *+     CLOUDY    28  21  74 N6        30.08R WCI  22
FRANKFORT +    MOSUNNY   30  19  64 N12       30.10S WCI  21
GREENWOOD *+   CLOUDY    32  18  55 N13G18    30.07R WCI  22
INDIANAPOLIS   FLURRIES  32  17  54 N12       30.06R WCI  23
-EAGLE CREEK   CLOUDY    31  18  58 N12       30.07R WCI  22
KOKOMO *+        N/A     28  14  54 N14G21    30.08S WCI  17
MARION +       CLOUDY    28  15  57 N16G22    30.07R WCI  17
MT COMFORT *+  MOSUNNY   32  12  43 N12       30.07R WCI  23
SHELBYVILLE    CLOUDY    34  21  59 N13       30.05R WCI  25
ZIONSVILLE +   CLOUDY    31  19  61 NW12      30.08R WCI  21

$$

INZ033-034-041-042-049-050-058-059-271700-
EAST CENTRAL INDIANA

CITY           SKY/WX    TMP DP  RH WIND       PRES   REMARKS
MUNCIE         CLOUDY    31  18  58 N12       30.05S WCI  22

$$

INZ060-061-067>069-081>083-085>088-271700-
SOUTHWEST INDIANA

CITY           SKY/WX    TMP DP  RH WIND       PRES   REMARKS
EVANSVILLE     PTSUNNY   42  29  59 N10       30.08S
HUNTINGBURG *+ PTSUNNY   39  28  65 N9G18     30.07S
WASHINGTON +   CLOUDY    35  24  63 N13       30.09R WCI  27

$$

INZ062-063-066-070>080-084-089>092-271700-
SOUTH CENTRAL AND SOUTHEAST INDIANA

CITY           SKY/WX    TMP DP  RH WIND       PRES   REMARKS
BEDFORD +      CLOUDY    36  23  60 N8        30.06R
BLOOMINGTON    CLOUDY    33  23  66 N13       30.07R WCI  24
NORTH VERNON + CLOUDY    34  23  64 N12       30.05R WCI  25
SEYMOUR +      CLOUDY    37  25  60 N10       30.06R

$$



USA.gov is the U.S. government's official web portal to all federal, state and local government web resources and services.